Location: Bremen
(53.0793°N, 8.8017°E)
Time: 12:03:54
(UTC+02:00)

Transit 2A Rocket - Pass Details

Date: 20 June 2024
Orbit: 582 x 910 km, 66.7° (Epoch: 19 July)

Event Time Altitude Azimuth Distance (km) Brightness Sun altitude
Rises 03:02:34 0° 302° (WNW) 3,356 8.4 -10.7°
Reaches altitude 10° 03:05:32 10° 317° (NW) 2,476 8.0 -10.5°
Maximum altitude 03:09:58 22° 7° (N) 1,831 8.0 -10.2°
Drops below altitude 10° 03:14:33 10° 57° (ENE) 2,584 8.7 -10.0°
Sets 03:17:44 0° 72° (ENE) 3,542 9.1 -9.8°
